This is the latest recevied weather packets stored in our database for station/object N2XP-2. If no packets are shown the sender has not sent any weather packets the latest 10 day(s).
| Time | Temp. | Humidity | Pressure | Rain* | Wind** | Luminosity | Snow |
|---|---|---|---|---|---|---|---|
| 1777473122 | 16.11° C | 64% | 1015.5 hPa | 0 mm | 0.89 m/s, 165° | - | - |
| 1777473026 | 16.11° C | 65% | 1015.6 hPa | 0 mm | 0 m/s | - | - |
| 1777472819 | 16.11° C | 65% | 1015.6 hPa | 0 mm | 0 m/s | - | - |
| 1777472696 | 15.56° C | 67% | 1015.6 hPa | 0 mm | 0 m/s | - | - |
| 1777472683 | 15° C | 68% | 1015.6 hPa | 0 mm | 0.45 m/s, 132° | - | - |
| 1777472679 | 15° C | 68% | 1015.6 hPa | 0 mm | 0.45 m/s, 158° | - | - |
| 1777472520 | 16.11° C | 66% | 1015.6 hPa | 0 mm | 0.89 m/s, 267° | - | - |
| 1777472221 | 15.56° C | 67% | 1015.6 hPa | 0 mm | 0.45 m/s, 277° | - | - |
| 1777471918 | 15.56° C | 67% | 1015.6 hPa | 0 mm | 0 m/s | - | - |
| 1777471661 | 15° C | 68% | 1015.6 hPa | 0 mm | 0.45 m/s, 132° | - | - |
| 1777471619 | 15.56° C | 67% | 1015.6 hPa | 0 mm | 0.89 m/s, 108° | - | - |
| 1777471399 | 15° C | 68% | 1015.6 hPa | 0 mm | 0.45 m/s, 132° | - | - |
| 1777471320 | 15° C | 68% | 1015.6 hPa | 0 mm | 0.45 m/s, 132° | - | - |
| 1777471015 | 15° C | 68% | 1015.6 hPa | 0 mm | 0.45 m/s, 158° | - | - |
| 1777470833 | 14.44° C | 68% | 1015.4 hPa | 0 mm | 0.45 m/s, 259° | - | - |
| 1777470757 | 14.44° C | 68% | 1015.4 hPa | 0 mm | 0.45 m/s, 259° | - | - |
| 1777470716 | 14.44° C | 68% | 1015.6 hPa | 0 mm | 0.89 m/s, 139° | - | - |
| 1777470660 | 14.44° C | 68% | 1015.4 hPa | 0 mm | 0 m/s | - | - |
| 1777470416 | 14.44° C | 68% | 1015.4 hPa | 0 mm | 0 m/s | - | - |
| 1777470113 | 14.44° C | 69% | 1015.3 hPa | 0 mm | 0 m/s | - | - |
| 1777469814 | 15° C | 68% | 1015.2 hPa | 0 mm | 0.89 m/s, 111° | - | - |
| 1777469515 | 14.44° C | 69% | 1015.3 hPa | 0 mm | 0 m/s | - | - |
| 1777469459 | 14.44° C | 68% | 1015.4 hPa | 0 mm | 1.34 m/s, 138° | - | - |
| 1777469211 | 14.44° C | 68% | 1015.4 hPa | 0 mm | 1.34 m/s, 138° | - | - |
| 1777469191 | 14.44° C | 68% | 1015.4 hPa | 0 mm | 0.45 m/s, 259° | - | - |
* Rain latest hour (hover to see other rain measurements)
** Current wind speed in m/s (hover to see current wind gust speed)